Location: Dalton
(34.7700°N, 84.9700°W)
Time: 23:58:49
(UTC-04:00)

OTV 5 (USA 277) - Pass Details

Date: 16 October 2017
Orbit: 404 x 417 km, 43.0° (Epoch: 07 September)

Event Time Altitude Azimuth Distance (km) Brightness Sun altitude
Rises 19:26:28 0° 286° (WNW) 2,351 ? -5.5°
Reaches altitude 10° 19:28:57 10° 304° (NW) 1,489 ? -6.0°
Maximum altitude 19:31:33 20° 354° (N) 1,018 ? -6.5°
Drops below altitude 10° 19:34:09 10° 45° (NE) 1,490 ? -7.1°
Enters shadow 19:35:01 - 53° (NE) 1,771 ? -7.2°
